This is the latest recevied weather packets stored in our database for station/object SP1BMW-13. If no packets are shown the sender has not sent any weather packets the latest 10 day(s).
| Time | Temp. | Humidity | Pressure | Rain* | Wind** | Luminosity | Snow |
|---|---|---|---|---|---|---|---|
| 1777718425 | 25.56° C | 28% | 1020.2 hPa | 0 mm | 0.89 m/s, 118° | 683 W/m² | - |
| 1777718365 | 25.56° C | 28% | 1020.1 hPa | 0 mm | 0.45 m/s, 95° | 684 W/m² | - |
| 1777718305 | 25.56° C | 29% | 1020.3 hPa | 0 mm | 0.45 m/s, 124° | 683 W/m² | - |
| 1777718245 | 25.56° C | 32% | 1020.1 hPa | 0 mm | 1.79 m/s, 238° | 682 W/m² | - |
| 1777718185 | 25.56° C | 31% | 1020.2 hPa | 0 mm | 0.45 m/s, 134° | 681 W/m² | - |
| 1777718125 | 25.56° C | 29% | 1020.2 hPa | 0 mm | 0.45 m/s, 36° | 680 W/m² | - |
| 1777718065 | 25.56° C | 29% | 1020.2 hPa | 0 mm | 1.34 m/s, 250° | 681 W/m² | - |
| 1777718005 | 25.56° C | 29% | 1020.2 hPa | 0 mm | 0.89 m/s, 161° | 680 W/m² | - |
| 1777717944 | 25.56° C | 30% | 1020.3 hPa | 0 mm | 0.45 m/s, 73° | 677 W/m² | - |
| 1777717884 | 25.56° C | 29% | 1020.3 hPa | 0 mm | 0.45 m/s, 152° | 681 W/m² | - |
| 1777717825 | 25.56° C | 29% | 1020.1 hPa | 0 mm | 0.89 m/s, 310° | 679 W/m² | - |
| 1777717764 | 25.56° C | 29% | 1020.3 hPa | 0 mm | 1.34 m/s, 85° | 679 W/m² | - |
| 1777717705 | 25.56° C | 31% | 1020.4 hPa | 0 mm | 0.45 m/s, 8° | 679 W/m² | - |
| 1777717644 | 25.56° C | 29% | 1020.2 hPa | 0 mm | 0.45 m/s, 79° | 678 W/m² | - |
| 1777717585 | 25.56° C | 30% | 1020.5 hPa | 0 mm | 0.45 m/s, 254° | 677 W/m² | - |
| 1777717525 | 25.56° C | 28% | 1020.4 hPa | 0 mm | 0.89 m/s, 0° | 678 W/m² | - |
| 1777717464 | 25° C | 30% | 1020.4 hPa | 0 mm | 0.45 m/s, 171° | 678 W/m² | - |
| 1777717404 | 25° C | 29% | 1020.2 hPa | 0 mm | 0.89 m/s, 96° | 677 W/m² | - |
| 1777717345 | 25° C | 30% | 1020.4 hPa | 0 mm | 0.45 m/s, 27° | 678 W/m² | - |
| 1777717285 | 25° C | 30% | 1020.4 hPa | 0 mm | 1.34 m/s, 266° | 680 W/m² | - |
| 1777717225 | 25° C | 29% | 1020.3 hPa | 0 mm | 1.79 m/s, 224° | 679 W/m² | - |
| 1777717165 | 25° C | 29% | 1020.4 hPa | 0 mm | 1.79 m/s, 157° | 680 W/m² | - |
| 1777717104 | 25° C | 29% | 1020.5 hPa | 0 mm | 1.79 m/s, 303° | 678 W/m² | - |
| 1777717045 | 25° C | 28% | 1020.4 hPa | 0 mm | 1.34 m/s, 223° | 674 W/m² | - |
| 1777716984 | 25° C | 28% | 1020.5 hPa | 0 mm | 1.79 m/s, 100° | 674 W/m² | - |
* Rain latest hour (hover to see other rain measurements)
** Current wind speed in m/s (hover to see current wind gust speed)